Вернуться в каталог

CEVROSAT

АктивенЛюбительское радиоVLEO
NORAD 66304·PAYLOAD·🇨🇿 Czechia
Это название спутника еще не подтверждено официальными источниками.

Запущен Nov 2, 2025 с Cape Canaveral Space Force Station

Loading…

Ближайшие Пролёты (ближайшие 24 часа)

TLE

СвежийSource: Space-Track

Эпоха: Sep 14, 2026, 07:18 UTC

1 66304U 25248M   26257.30437579  .00013083  00000-0  44672-3 0  9991
2 66304  45.4207 349.5457 0008744 226.7829 133.2332 15.30340202 46972

Отслеживайте CEVROSAT в реальном времени с AllMySat

Download on the App Store